Погода в Шилке

Погода в Шилке : погода сейчас, прогноз погоды и архив. Всё, что Вы хотите узнать о погоде в Шилке!

Хотите узнать прогноз погоды в Шилке? Тогда Вам сюда: Погода в Шилке

Поиск расширенной информации на нашем сайте:

Другие новости

Новости СМИ2

Главная страница сайта

Новости сайта

03.07.2017

Напоминаем, что на нашем специализированном сайте Метеоцентр.Азия вы можете получить высокодетализированные автоматические прогнозы погоды по пунктам России, СНГ и мира в авиационном формате (включающие направление и скорость ветра, видимость, явления погоды, количество и форму облачности, нижнюю и верхнюю границу облачности).


Погода в Шилке - сегодня

Время (UTC), дата Ветер
(°,м/с) 
Видим.   Явления Облачность Т
(°С)
Тd
(°С)
f(%) Тe
(°С)
Pmin
(гПа)
dP
(гПа)
Po
(мм)
O2
(г/м3)
Тmin Tmax R s Состояние
почвы
00 14.08.18 320 (СЗ) 20000 м  туман на расстоянии  3/0 верхняя 
[Ci sp]
+18 +13.1 73 +26  1011.9  1.3  708  265  +12        сухая 
03 14.08.18 150 (ЮВ) 20000 м    8/0 средняя, верхняя 
[Ac trans|Ci fib]
+23.7 +15.3 59 +35  1010.9  0.4  708  259           
06 14.08.18 070 (В) 20000 м    3/0 верхняя 
[Ci fib]
+28.4 +13.9 41 +37  1008.8  -0.9  708  255           
09 14.08.18 140 (ЮВ) 20000 м    6/0 средняя, верхняя 
[Ac trans|Ci fib]
+28.9 +11.5 34 +33  1009  0.2  708  256           
15 14.08.18 160 (Ю) 50000 м    3/0 средняя 
[Ac lent]
+16.2 +14.5 90 +27  1014.4  710  267           
18 14.08.18 тихо ()   50000 м    ясно 
+13.7 +12.8 94 +20  1016.3  1.2  711  270           
21 14.08.18 тихо ()   н/о    н/о 
+13 +12.6 97 +19  1017.5  1.2  711  271           
00 15.08.18 080 (В) 20000 м  туман на расстоянии  5/0 средняя, верхняя 
[Ac trans|Ci fib]
+18.1 +14.5 79 +29  1017.4  1.1  712  266  +12.7        сухая 
03 15.08.18 220 (ЮЗ) 20000 м    10/0 верхняя 
[Cs]
+25.8 +16 55 +38  1015.2  -0.4  712  259           
06 15.08.18 190 (Ю) 20000 м    10/1 1000 м средняя, верхняя 
[Cu med, cong|Ac As|Cs]
+28.5 +14.5 42 +38  1013.8  -0.8  711  257           
09 15.08.18 190 (Ю) 20000 м    9/0 средняя, верхняя 
[Ac As|Ci fib]
+27.1 +15.3 48 +38  1012.9  -1.1  710  257           
15 15.08.18 120 (ЮВ) н/о    н/о 
+19 +15.6 81 +31  1014.5  710  264           
18 15.08.18 180 (Ю) н/о    н/о 
+19.6 +16.3 81 +33  1013.3  -0.9  710  263           
21 15.08.18 070 (В) 20000 м    10/0 кучево-дожд., средняя, верхняя 
[Cb calv|Ac trans|Cs]
+18.6 +16.4 87 +33  1012.2  -1.3  709  264           
00 16.08.18 270 (З) 20000 м    10/4 1000 м кучево-дожд., средняя, верхняя 
[Cb calv|Ac trans|Ci fib]
+21.2 +17.4 79 +36  1010.4  -1  708  261  +17.9        сухая 
03 16.08.18 190 (Ю) 20000 м    10/6 1000 м кучево-дожд., средняя 
[Cb calv|Ac cuf]
+23.2 +16.5 66 +36  1008.1  -1.8  706  259           
12 16.08.18 180 (Ю) 20000 м  в посл. час ливневой дождь  8/4 600 м кучево-дожд., средняя, верхняя 
[Cb calv|Ac cuf|Ci sp]
+15.6 +14.9 96 +27  1008.9  0.6  706  266    +25.5  27     
15 16.08.18 270 (З) 50000 м    10/4 1000 м кучево-дожд., верхняя 
[Cb calv|Ci sp]
+15.1 +14.6 97 +26  1008.9  0.1  706  266           
18 16.08.18 230 (ЮЗ) 50000 м    3/0 верхняя 
[Ci sp]
+13.2 +12.4 95 +18  1008.7  -0.6  705  268           
21 16.08.18 240 (ЮЗ) н/о    н/о 
+11.6 +10.2 91 +14  1009.1  0.1  705  271           
00 17.08.18 230 (ЮЗ) 20000 м    3/0 верхняя 
[Ci fib]
+13.5 +9.1 75 +14  1009.4  0.7  706  269  +11.2        влажная 
09 17.08.18 250 (З) 6{11}  20000 м    5/3 1000 м кучево-дожд., средняя 
[Cb calv|Ac trans]
+20.8 +9.2 47 +22  1004.5  -0.7  703  262           
15 17.08.18 250 (З) 50000 м    10/0 средняя 
[Ac As]
+15.3 +9.4 68 +18  1004.9  -0.8  703  266           
18 17.08.18 240 (ЮЗ) 50000 м    10/0 средняя 
[Ac und]
+14.2 +9.4 73 +17  1003.6  -1.4  702  267           
21 17.08.18 250 (З) н/о    н/о 
+13 +9.3 78 +15  1003.6  -0.3  701  268           
Время (UTC), дата Ветер
(°,м/с) 
Видим.   Явления Облачность Т
(°С)
Тd
(°С)
f(%) Тe
(°С)
Pmin
(гПа)
dP
(гПа)
Po
(мм)
O2
(г/м3)
Тmin Tmax R s Состояние
почвы

Для получения пояснительной информации подведите курсор к названию столбца.

ПОГОДА в Шилке - архив

Всё, что Вы хотите узнать о погоде в Шилке - удобно и подробно!

Выберите нужную дату (начиная с 1 января 2015* года) и нажмите кнопку "Найти".
Будут отображены архивные сводки погоды по пункту Шилка, начиная с указанной даты.


Отображать данные в формате CSV (для использования в таблицах Excel)


Внимание! Наш архив погоды предназначен исключительно для личного некоммерческого использования в познавательных целях. Если Вам необходимы официальные справки о состоянии погоды (для производственных, юридических, коммерческих и т.п. целей), обращайтесь в органы Росгидромета.

*Примечание: данная дата относится к архиву по метеостанциям СССР (Россия, СНГ, Балтия).
Архив по метеостанциям Зарубежной Европы и Азии (кроме Китая) хранится 10 дней, по другим регионам земного шара (Китай, Африка, Америка, Австралия, Океания) - 1 день.

Шилка - район местоположения метеостанции


Название, широта, долгота, высота метеостанции:
Шилка 51.9°ш. 116°д. 597 м над ур. моря [Российская Федерация]

Дополнительная информация

В oтличие oт бoльшинства пoгoдных сайтoв мы публикуем пoдрoбную метеoинфoрмацию в детальнoм прoфессиoнальнoм фoрмате.

Характеристики температуры и влажнoсти вoздуха измеряются на высoте 2 м в тени вдали oт зданий и деревьев.
Скoрoсть ветра измеряется на высoте 10 м (на урoвне рoста челoвека скoрoсть ветра ниже в 1.5-2 раза). Если метеoстанция нахoдится в гoрoде или в лесу, тo скoрoсть ветра занижена на 2-4 м/с пo сравнению с oткрытым местoм. Скoрoсть ветра над акватoриями крупных рек и oзёр, а также на вершинах хoлмoв на 2-5 м/с выше, чем в oбычных услoвиях.
Атмoсфернoе давление в разных тoчках местнoсти мoжет значительнo oтличаться oт давления на метеoстанции, в зависимoсти oт услoвий рельефа (при пoдъёме на 10 м давление пoнижается примернo на 1 мм рт.ст.).